Weather WX

World > North America > United States > New Jersey

Oceanville, New Jersey Regional Weather

Lat: 39.47N, Lon: 74.46W
Wx Zone: NJZ022
Warning FLW WEATHER ALERT - (More Info. Click Here) Warning
Feedback

Oceanville, NJ Regional Weather

Expires:201907181800;;260176
ASUS41 KPHI 181712
RWRPHI

REGIONAL WEATHER ROUNDUP
NATIONAL WEATHER SERVICE MOUNT HOLLY NJ
100 PM EDT THU JUL 18 2019

NOTE:  "FAIR" INDICATES FEW OR NO CLOUDS BELOW 12,000 FEET WITH NO
SIGNIFICANT WEATHER AND/OR OBSTRUCTIONS TO VISIBILITY.

 * = STATION DOES NOT REPORT PRECIPITATION (E.G. RAIN, SNOW, ETC.) 
        OR FOG.


NJZ015>026-181800-
SOUTHERN NEW JERSEY
  
CITY           SKY/WX    TMP DP  RH WIND       PRES   REMARKS
POMONA         FAIR      91  75  59 S7        29.87S HX 101           
WILDWOOD*      FAIR      89  78  70 S8        29.89S HX 103           
MILLVILLE      FAIR      88  77  69 VRB5      29.87F HX 100           
WRIGHTSTOWN    LGT RAIN  86  75  70 E3        29.86F HX  95           
MOUNT HOLLY    HVY RAIN  82  77  84 N10       29.86F HX  90           
TRENTON        CLOUDY    84  75  74 SE3       29.88F HX  92           

$$

SKY/WX - Weather  TMP - Temperature  DP - Dew Point  RH - Relative Humidity
WIND - Wind Direction/Speed PRES - Barometric Pressure VSB - Visibility
WCI - Wind Chill Index E13G22 Wind - East Wind 13 mph/Gusts of 22 mph